Cloud_Cover
5 36 98 96 100 100 98 98 98 91 97 78 88 100 100 100 85 100 100 100 100 60 24 90 100 90 100 94 60 100 12 5 5 15 15 13 5 6 5 6 22 92 100 86 39 36 74 99 100
5 6 24 96 71 99 85 92 100 94 88 100 100 100 100 100 100 100 100 100 100 100 68 85 100 100 100 91 76 98 100 22 13 28 6 5 24 5 15 88 63 25 26 83 73 94 100 99 100
1 3 21 100 89 100 100 94 81 100 82 96 96 98 98 78 100 100 100 100 99 87 88 90 100 100 100 74 100 66 100 20 65 11 5 41 5 5 54 87 22 5 5 73 100 94 100 100 100
5 4 24 98 100 64 100 63 29 58 93 61 100 21 76 100 100 76 100 100 100 95 99 100 100 100 100 94 100 100 44 11 24 13 6 7 24 9 19 83 74 30 61 100 100 100 58 100 100
5 6 98 100 100 96 78 75 42 66 56 70 99 85 92 99 96 77 100 100 100 80 92 98 100 100 100 100 80 100 100 92 18 91 16 5 34 56 74 89 91 87 94 100 44 38 26 15 100
19 76 43 99 97 20 97 87 12 5 22 45 80 95 97 92 100 99 95 100 100 99 94 94 100 100 100 100 100 81 100 100 100 98 100 6 27 24 87 100 100 97 100 96 68 100 71 39 8
53 100 100 97 89 100 99 100 54 19 64 100 100 98 99 100 100 100 100 100 100 100 100 100 100 100 100 100 100 51 75 100 96 99 100 69 7 30 44 72 100 100 100 100 100 100 100 100 99
89 69 87 100 78 100 99 45 68 79 100 77 83 99 98 95 100 100 100 100 100 100 99 65 100 100 100 100 98 100 97 58 100 74 100 100 20 21 5 17 91 99 74 100 100 99 42 52 36
20 100 55 93 100 85 98 36 58 68 80 85 62 100 100 100 100 100 58 100 100 91 96 33 100 100 100 100 100 100 100 100 100 99 100 100 88 73 95 25 41 56 95 54 26 91 95 39 78
100 100 77 100 96 99 96 72 100 82 44 99 100 96 50 100 100 100 67 94 90 92 100 77 100 100 100 100 100 96 86 100 98 100 100 100 99 65 75 100 33 98 43 71 77 53 47 84 96
66 41 77 24 45 97 77 78 35 99 57 55 0 1 68 100 100 100 100 99 99 95 91 99 96 100 100 100 100 100 100 100 100 100 39 84 100 100 74 64 100 99 99 70 85 96 22 93 99
29 11 51 18 9 36 48 54 44 6 1 0 0 0 0 77 53 99 94 93 77 97 54 42 92 100 100 100 100 100 100 100 100 100 71 58 88 100 100 97 100 100 59 100 31 100 21 62 73
100 7 8 5 32 68 6 42 54 10 0 0 0 0 0 28 62 100 100 100 100 41 71 86 43 55 90 100 100 100 100 98 100 100 67 100 100 100 100 95 98 100 100 100 11 95 100 98 65
79 5 10 14 78 19 40 31 95 32 2 0 0 0 0 2 40 100 100 100 94 97 100 100 91 94 67 20 100 100 100 100 100 100 100 98 100 100 100 100 95 100 100 87 24 88 100 80 100
10 86 48 93 50 94 20 27 14 0 0 0 0 0 0 0 1 50 55 100 100 99 66 61 86 100 53 62 100 100 100 100 100 100 100 61 100 82 100 97 98 86 98 54 95 64 100 100 99
43 85 100 15 3 35 24 100 100 0 0 4 1 4 4 0 0 0 2 76 87 83 100 100 95 100 90 95 46 100 100 100 100 100 100 100 85 85 100 99 100 93 71 92 100 98 100 100 98
24 100 96 34 0 20 0 73 72 1 0 64 71 6 0 0 1 0 0 5 46 98 100 99 100 64 90 99 95 67 100 100 100 100 100 100 100 38 58 100 98 21 98 83 84 98 100 100 100
82 97 67 100 24 0 3 57 34 10 1 50 75 67 26 10 0 0 4 5 5 5 10 89 86 100 71 47 32 44 100 100 100 100 100 100 97 78 6 100 66 34 95 100 60 95 100 100 100
98 100 83 77 68 24 53 13 26 24 36 0 1 68 30 50 8 0 0 5 5 5 2 5 97 100 98 85 67 84 72 98 100 100 97 100 70 100 59 91 100 35 27 66 99 99 100 100 100
99 100 100 60 63 83 10 5 5 5 5 12 0 15 48 42 95 23 0 0 9 5 1 0 7 70 62 85 52 42 99 93 100 100 100 16 98 100 100 82 99 100 83 41 58 97 100 100 100
73 99 95 67 100 22 5 29 15 6 1 0 0 16 32 94 6 73 2 1 45 91 3 0 0 9 30 78 91 97 96 84 80 100 100 71 96 100 100 79 100 100 99 68 94 100 100 100 100
98 42 94 99 47 84 47 12 20 13 2 4 3 20 35 98 16 20 30 0 45 98 14 0 8 20 36 48 49 77 74 57 74 100 100 100 100 100 100 100 100 100 74 59 89 95 100 83 100
99 74 40 4 98 92 68 28 96 26 56 98 9 3 11 28 98 50 9 0 5 5 2 5 3 40 46 12 29 21 12 17 98 92 100 100 100 100 100 100 100 100 46 84 95 86 96 76 100
14 84 4 5 5 11 90 86 68 66 99 100 99 99 70 5 29 8 30 0 0 25 11 4 25 1 88 32 16 12 28 2 83 100 70 100 98 97 100 100 100 100 100 70 100 36 16 60 100
66 20 54 96 98 84 39 14 5 100 27 6 1 0 0 0 14 58 36 78 6 35 4 7 57 8 13 70 97 52 36 22 68 9 9 95 100 100 99 100 100 99 100 92 42 6 71 53 100
9 25 84 100 77 71 46 91 9 22 2 5 0 0 0 0 0 0 0 18 30 78 82 5 4 15 17 10 82 91 99 48 98 54 28 10 30 89 100 100 100 100 100 100 100 74 6 36 100
70 6 28 100 100 91 86 43 96 29 64 6 5 0 0 0 0 0 0 0 21 100 96 5 4 13 11 17 98 100 82 7 73 99 31 7 5 20 100 33 32 100 100 100 100 100 13 45 100
57 90 42 84 51 48 89 27 58 46 55 5 5 0 5 0 0 0 0 0 33 100 33 5 3 6 4 28 29 72 82 58 38 81 40 23 82 12 100 65 98 48 100 100 91 31 23 99 100
4 7 84 100 100 38 53 69 96 100 48 58 4 3 3 2 0 0 0 0 3 75 90 0 3 6 4 6 17 30 53 51 16 75 37 52 31 93 74 37 4 11 100 100 100 57 82 100 100
5 5 5 7 6 9 9 75 99 99 61 46 88 8 0 0 0 0 0 0 6 81 1 0 2 0 0 14 24 21 25 38 47 51 100 46 15 9 76 89 3 18 52 100 100 84 100 100 94